Regional Weather Roundup
Issued by NWS

Home | Current Version | Previous Version | Graphics & Text | Print | Product List | Glossary On
Versions: 1 2 3 4 5 6 7 8 9 10 11 12 13 14 15 16 17 18 19 20 21 22 23 24 25 26 27 28 29 30 31 32 33 34 35 36 37 38 39 40 41 42 43 44 45 46 47 48 49 50
000
ASUS43 KMKX 170011
RWRWI

WISCONSIN REGIONAL WEATHER ROUNDUP
NATIONAL WEATHER SERVICE MILWAUKEE/SULLIVAN WI
700 PM CDT WED AUG 16 2017

NOTE: "FAIR" INDICATES FEW OR NO CLOUDS BELOW 12,000 FEET WITH NO
SIGNIFICANT WEATHER AND/OR OBSTRUCTIONS TO VISIBILITY.

WIZ001-002-006>008-014>016-023>028-170100-
NORTHWEST WISCONSIN

CITY           SKY/WX    TMP DP  RH WIND       PRES   REMARKS
SUPERIOR ARPT    N/A     62  60  96 NE18G24   29.85F
6HR MIN TEMP:  61; 6HR MAX TEMP:  63; 6HR PCP:  0.21;

ASHLAND        CLOUDY    67  61  81 NE7       29.87F
6HR MIN TEMP:  67; 6HR MAX TEMP:  74; 6HR PCP: TRACE;

HAYWARD        CLOUDY    73  63  70 E6        29.84F
6HR MIN TEMP:  69; 6HR MAX TEMP:  75;

SIREN          CLOUDY    73  65  75 E6        29.79F
6HR MIN TEMP:  71; 6HR MAX TEMP:  76;

CUMBERLAND     CLOUDY    72  63  73 E9        29.80F
RICE LAKE      CLOUDY    74  65  73 E12       29.81F
6HR MIN TEMP:  72; 6HR MAX TEMP:  77;

CHETEK         CLOUDY    74  66  75 E10G17    29.79F
6HR MIN TEMP:  74; 6HR MAX TEMP:  79;

LADYSMITH      CLOUDY    74  64  71 E7        29.85F
6HR MIN TEMP:  74; 6HR MAX TEMP:  78;

EAU CLAIRE     CLOUDY    76  65  68 E12       29.76F
6HR MIN TEMP:  75; 6HR MAX TEMP:  81;

MENOMONIE      CLOUDY    76  66  72 E10       29.76F
6HR MIN TEMP:  75; 6HR MAX TEMP:  80;

NEW RICHMOND   CLOUDY    74  65  73 E12       29.75F
6HR MIN TEMP:  72; 6HR MAX TEMP:  77;

OSCEOLA        CLOUDY    74  67  76 E8        29.76F
6HR MIN TEMP:  73; 6HR MAX TEMP:  77;

$$

WIZ003>005-009-010-017-018-170100-
NORTH CENTRAL WISCONSIN

CITY           SKY/WX    TMP DP  RH WIND       PRES   REMARKS
MANITOWISH WTR MOSUNNY   70  60  70 SE7       29.90F
6HR MIN TEMP:  70; 6HR MAX TEMP:  73;

ARBOR VITAE    MOSUNNY   72  61  67 SE9       29.90F
6HR MIN TEMP:  72; 6HR MAX TEMP:  77;

WOODRUFF       MOSUNNY   72  61  67 SE9       29.90F
6HR MIN TEMP:  72; 6HR MAX TEMP:  77;

RHINELANDER    PTCLDY    70  60  70 E10       29.92F
6HR MIN TEMP:  70; 6HR MAX TEMP:  76;

EAGLE RIVER    PTCLDY    69  55  62 SE7       29.92F
6HR MIN TEMP:  69; 6HR MAX TEMP:  75;

LAND O LAKES   PTCLDY    70  56  62 SE6       29.94F
6HR MIN TEMP:  70; 6HR MAX TEMP:  77;

PHILLIPS       CLOUDY    72  63  73 SE6       29.87F
6HR MIN TEMP:  71; 6HR MAX TEMP:  75;

TOMAHAWK         N/A     69  60  71 E5        29.90F
6HR MIN TEMP:  69; 6HR MAX TEMP:  76;

MEDFORD        CLOUDY    70  63  76 E9        29.86F
6HR MIN TEMP:  70; 6HR MAX TEMP:  74;

MERRILL        CLOUDY    72  63  73 SE9       29.89F
$$

WIZ029-030-035-036-043>047-170100-
CENTRAL WISCONSIN

CITY           SKY/WX    TMP DP  RH WIND       PRES   REMARKS
WAUSAU         CLOUDY    71  63  75 SE14      29.87F
6HR MIN TEMP:  71; 6HR MAX TEMP:  77;

MOSINEE        CLOUDY    72  64  78 E8        29.89F
MARSHFIELD     CLOUDY    74  62  66 E14       29.84F
6HR MIN TEMP:  74; 6HR MAX TEMP:  79;

STEVENS POINT  CLOUDY    71  63  75 E10G18    29.88S
6HR MIN TEMP:  71; 6HR MAX TEMP:  77;

WAUPACA        CLOUDY    76  64  66 E8        29.88F
6HR MIN TEMP:  76; 6HR MAX TEMP:  82;

WAUTOMA        CLOUDY    75  66  73 E12G17    29.86S
6HR MIN TEMP:  75; 6HR MAX TEMP:  82;

WISC RAPIDS    CLOUDY    75  65  70 E14       29.86F
6HR MIN TEMP:  75; 6HR MAX TEMP:  81;

CAMP DOUGLAS   CLOUDY    75  68  78 E12       29.79F
                                      6HR PCP: TRACE;

$$

WIZ011>013-019>022-031-037>040-048>050-170100-
NORTHEAST WISCONSIN

CITY           SKY/WX    TMP DP  RH WIND       PRES   REMARKS
ANTIGO         PTCLDY    68  59  72 E9        29.92F
6HR MIN TEMP:  68; 6HR MAX TEMP:  74;

SHAWANO        CLOUDY    72  64  73 E8        29.90F
OCONTO         PTCLDY    69  62  78 E5        29.92F
6HR MIN TEMP:  69; 6HR MAX TEMP:  75;

STURGEON BAY   NOT AVBL
GREEN BAY      CLOUDY    71  64  78 E8        29.90F
6HR MIN TEMP:  71; 6HR MAX TEMP:  77;

MANITOWOC      CLOUDY    69  62  78 E6        29.92F
6HR MIN TEMP:  69; 6HR MAX TEMP:  74;

APPLETON       MOCLDY    73  57  56 E12       29.89F
CLINTONVILLE   CLOUDY    72  61  68 E6        29.89F
OSHKOSH        CLOUDY    73  63  70 E14       29.88F
6HR MIN TEMP:  73; 6HR MAX TEMP:  79;

$$

WIZ032>034-041-042-053>061-170100-
SOUTHWEST WISCONSIN

CITY           SKY/WX    TMP DP  RH WIND       PRES   REMARKS
LA CROSSE      LGT RAIN  76  72  87 E10       29.75S
6HR MIN TEMP:  76; 6HR MAX TEMP:  89; 6HR PCP:  0.13;

SPARTA         RAIN      72  69  91 SE6       29.79S
6HR MIN TEMP:  72; 6HR MAX TEMP:  83; 6HR PCP:  0.03;

VIROQUA        CLOUDY    72  72 100 E10       29.79F
6HR MIN TEMP:  72; 6HR MAX TEMP:  82; 6HR PCP:  0.21;

BOSCOBEL       PTSUNNY   78  71  79 VRB6      29.77F HX  80
6HR MIN TEMP:  76; 6HR MAX TEMP:  88; 6HR PCP:  0.15;

PRAIRIE DU CHI LGT RAIN  73  71  92 SE8       29.75F
6HR MIN TEMP:  73; 6HR MAX TEMP:  84; 6HR PCP:  0.16;

PLATTEVILLE    CLOUDY    74  74 100 SE14      29.80F
6HR MIN TEMP:  73; 6HR MAX TEMP:  83; 6HR PCP:  0.35;

$$

WIZ056-057-062-063-064-067-068-170100-
SOUTH CENTRAL WISCONSIN

CITY           SKY/WX    TMP DP  RH WIND       PRES   REMARKS
REEDSBURG      LGT RAIN  73  73 100 SE9       29.82R
6HR MIN TEMP:  73; 6HR MAX TEMP:  84; 6HR PCP:  0.06;

BARABOO/DELLS  RAIN      73  69  88 SE12G17   29.85R
6HR MIN TEMP:  73; 6HR MAX TEMP:  84; 6HR PCP:  0.04;

LONE ROCK      CLOUDY    75  73  93 E14       29.79F
6HR MIN TEMP:  75; 6HR MAX TEMP:  85; 6HR PCP:  0.01;

MINERAL POINT  RAIN      73  73 100 SE9       29.81F
MADISON        CLOUDY    73  71  93 SE14      29.85R
6HR MIN TEMP:  73; 6HR MAX TEMP:  85; 6HR PCP:  0.32;

MIDDLETON      CLOUDY    74  72  93 SE12G18   29.85R
6HR MIN TEMP:  74; 6HR MAX TEMP:  85; 6HR PCP:  0.21;

WATERTOWN      LGT RAIN  71  71 100 SE7       29.87S
6HR MIN TEMP:  71; 6HR MAX TEMP:  84; 6HR PCP:  0.08;

MONROE         LGT RAIN  72  70  94 SE8       29.84R
JANESVILLE     DRIZZLE   75  75 100 SE7       29.85F
$$

WIZ051-052-058>065-066-070>072-170100-
SOUTHEAST WISCONSIN

CITY           SKY/WX    TMP DP  RH WIND       PRES   REMARKS
MILWAUKEE      RAIN      73  69  87 E5        29.90R
6HR MIN TEMP:  73; 6HR MAX TEMP:  78; 6HR PCP: TRACE;

WAUKESHA       LGT RAIN  70  64  83 E8        29.91R FOG
MILWAUKEE/TIMM LGT RAIN  72  63  73 E7        29.91S
RACINE         LGT RAIN  73  71  93 E7        29.91S
6HR MIN TEMP:  73; 6HR MAX TEMP:  78; 6HR PCP:  0.03;

KENOSHA        LGT RAIN  74  70  87 SE7       29.90S
6HR MIN TEMP:  74; 6HR MAX TEMP:  79; 6HR PCP:  0.04;

FOND DU LAC    MOCLDY    74  60  61 E8        29.88F
6HR MIN TEMP:  74; 6HR MAX TEMP:  81;

SHEBOYGAN      CLOUDY    69  66  90 NE9       29.92S
6HR MIN TEMP:  69; 6HR MAX TEMP:  76;

WEST BEND      PTCLDY    70  63  78 E6        29.90F
JUNEAU         RAIN      71  64  77 E12G17    29.88S
6HR MIN TEMP:  71; 6HR MAX TEMP:  80;

$$

LSZ147-162-170100-
LAKE SUPERIOR

STATION/POSITION TIME  TEMP    WIND        PRES    WAVE
                       AIR SEA DIR/SP/G            HT/PER
                 (UTC) (F)     (DEG/KT/KT) (MB)    (FT/S)
W MID LAKE BUOY  2250   63 61   50/ 12/ 16 1012.8F   1/ 3
DEVILS ISLAND    2300   62      60/ 18/ 20 1012.5F
SAXON HARBOR     2330   68      70/  4/  7 1010.8F
$$

LMZ867-665-643>646-170100-
LAKE MICHIGAN

STATION/POSITION TIME  TEMP    WIND        PRES    WAVE
                       AIR SEA DIR/SP/G            HT/PER
                 (UTC) (F)     (DEG/KT/KT) (MB)    (FT/S)
S GREEN BAY BUOY 0000   71 72  110/  8/ 12 1012.8
N MID LAKE BUOY  2350   69 69   70/  6/  6 1014.4F   1
NORTHPORT PIER   2340   70     100/  4/  5 1013.9F
KEWAUNEE LAKESHO 2348   68      50/  4/  7 1012.6F
SHEBOYGAN LAKESH 2300   69      50/  8/


USA.gov is the U.S. government's official web portal to all federal, state and local government web resources and services.